Weather History for Salem, IL

Change the Weather History Date:

Thursday, February 28, 2013

  Actual Average Record
Temperature  
Mean Temperature 35 °F -  
Max Temperature 37 °F 50 °F 73 °F (1972)
Min Temperature 33 °F 29 °F 5 °F (1993)
Degree Days  
Heating Degree Days 30    
Moisture  
Dew Point 32 °F    
Average Humidity 91    
Maximum Humidity 100    
Minimum Humidity 86    
Precipitation  
Precipitation 0.00 in - - ()
Sea Level Pressure  
Sea Level Pressure 29.98 in    
Wind  
Wind Speed 11 mph (WNW)    
Max Wind Speed 17 mph    
Max Gust Speed 22 mph    
Visibility 6 miles    
Events Snow    
Averages and records for this station are not official NWS values.
T = Trace of Precipitation, MM = Missing Value Source: NWS Daily Summary

Daily Weather History Graph

Daily Weather History Graph

Search for Another Location

Airport:

Trip Planner

Search our weather history database for the weather conditions in past years. The results will help you decide how hot, cold, wet, or windy it might be!

Date:

Astronomy

Feb. 28, 2013 Rise Set
Actual Time 6:29 AM CST 5:48 PM CST
Civil Twilight 6:02 AM CST 6:14 PM CST
Nautical Twilight 5:31 AM CST 6:45 PM CST
Astronomical Twilight 5:00 AM CST 7:16 PM CST
Moon 9:11 PM CST (2/28) 7:41 AM CST (2/28)
Length of Visible Light 12h 12m
Length of Day
11h 18m
Waning Gibbous, 90% of the Moon is Illuminated
Feb 28
Waning Gibbous
Mar 4
Last Quarter
Mar 11
New
Mar 19
First Quarter
Mar 27
Full

Hourly Weather History & Observations

Time (CST) Temp. Windchill Dew Point Humidity Pressure Visibility Wind Dir Wind Speed Gust Speed Precip Events Conditions
12:15 AM 33.4 °F 25.4 °F 32.0 °F 94% 29.85 in 7.0 mi West 10.4 mph 18.4 mph N/A   Overcast
12:35 AM 33.8 °F 25.3 °F 31.8 °F 92% 29.85 in 7.0 mi West 11.5 mph - N/A   Overcast
12:55 AM 33.8 °F 24.3 °F 32.0 °F 93% 29.85 in 7.0 mi West 13.8 mph - N/A   Overcast
1:15 AM 33.8 °F 25.3 °F 31.8 °F 92% 29.85 in 7.0 mi West 11.5 mph - N/A   Overcast
1:35 AM 33.8 °F 24.3 °F 31.8 °F 92% 29.85 in 7.0 mi West 13.8 mph 18.4 mph N/A   Overcast
1:55 AM 33.6 °F 25.6 °F 32.0 °F 94% 29.85 in 7.0 mi West 10.4 mph - N/A   Overcast
2:15 AM 33.8 °F 25.3 °F 32.0 °F 93% 29.85 in 7.0 mi West 11.5 mph 18.4 mph N/A   Overcast
2:35 AM 33.6 °F 23.7 °F 31.8 °F 93% 29.85 in 7.0 mi WNW 15.0 mph 18.4 mph N/A   Overcast
2:55 AM 33.4 °F 23.9 °F 31.8 °F 94% 29.86 in 7.0 mi West 13.8 mph 18.4 mph N/A   Overcast
3:15 AM 33.4 °F 24.3 °F 31.8 °F 94% 29.86 in 7.0 mi West 12.7 mph 19.6 mph N/A   Overcast
3:35 AM 33.4 °F 24.8 °F 31.8 °F 94% 29.86 in 7.0 mi West 11.5 mph - N/A   Overcast
3:55 AM 33.4 °F 24.8 °F 31.8 °F 94% 29.87 in 7.0 mi West 11.5 mph 17.3 mph N/A   Overcast
4:15 AM 33.4 °F 24.3 °F 32.0 °F 94% 29.87 in 7.0 mi West 12.7 mph - N/A   Overcast
4:35 AM 33.8 °F 25.8 °F 32.0 °F 93% 29.88 in 7.0 mi West 10.4 mph - N/A   Overcast
4:55 AM 33.8 °F 25.3 °F 32.0 °F 93% 29.89 in 7.0 mi West 11.5 mph - N/A   Overcast
5:15 AM 33.8 °F 26.4 °F 32.0 °F 93% 29.89 in 7.0 mi WNW 9.2 mph - N/A   Overcast
5:35 AM 33.8 °F 26.4 °F 32.0 °F 93% 29.90 in 7.0 mi West 9.2 mph - N/A   Overcast
5:55 AM 33.8 °F 25.3 °F 31.8 °F 92% 29.90 in 7.0 mi West 11.5 mph 16.1 mph N/A   Overcast
6:15 AM 33.8 °F 26.4 °F 32.0 °F 93% 29.91 in 7.0 mi West 9.2 mph - N/A   Overcast
6:35 AM 33.8 °F 26.4 °F 32.0 °F 93% 29.91 in 7.0 mi WNW 9.2 mph - N/A   Overcast
6:55 AM 33.8 °F 26.4 °F 32.0 °F 93% 29.92 in 7.0 mi West 9.2 mph - N/A   Overcast
7:15 AM 34.0 °F 25.5 °F 32.0 °F 92% 29.93 in 5.0 mi West 11.5 mph 16.1 mph N/A   Overcast
7:35 AM 34.0 °F 26.0 °F 32.0 °F 92% 29.93 in 5.0 mi West 10.4 mph - N/A   Overcast
7:55 AM 34.0 °F 26.0 °F 32.0 °F 92% 29.94 in 5.0 mi West 10.4 mph - N/A   Overcast
8:15 AM 34.5 °F 26.2 °F 32.2 °F 91% 29.95 in 5.0 mi WNW 11.5 mph 16.1 mph N/A   Overcast
8:35 AM 34.7 °F 26.9 °F 32.0 °F 90% 29.95 in 7.0 mi West 10.4 mph - N/A   Overcast
8:55 AM 34.7 °F 26.9 °F 32.2 °F 91% 29.96 in 5.0 mi WNW 10.4 mph 18.4 mph N/A   Overcast
9:15 AM 34.7 °F 25.1 °F 32.2 °F 91% 29.97 in 5.0 mi WNW 15.0 mph 20.7 mph N/A   Overcast
9:35 AM 34.9 °F 26.2 °F 32.4 °F 91% 29.97 in 5.0 mi WNW 12.7 mph 17.3 mph N/A   Overcast
9:55 AM 35.1 °F 27.4 °F 32.9 °F 92% 29.97 in 5.0 mi WNW 10.4 mph 17.3 mph N/A   Overcast
10:15 AM 35.2 °F 25.8 °F 32.9 °F 91% 29.98 in 5.0 mi WNW 15.0 mph 19.6 mph N/A   Overcast
10:35 AM 35.6 °F 27.5 °F 32.9 °F 90% 29.99 in 5.0 mi WNW 11.5 mph - N/A   Overcast
10:55 AM 35.4 °F 27.8 °F 32.9 °F 91% 29.99 in 5.0 mi WNW 10.4 mph 18.4 mph N/A   Overcast
11:15 AM 35.8 °F 26.5 °F 33.1 °F 90% 30.00 in 7.0 mi WNW 15.0 mph 19.6 mph N/A   Overcast
11:35 AM 35.8 °F 25.7 °F 33.1 °F 90% 30.00 in 7.0 mi WNW 17.3 mph 21.9 mph N/A   Overcast
11:55 AM 36.0 °F 27.1 °F 33.3 °F 90% 30.00 in 7.0 mi NW 13.8 mph 18.4 mph N/A   Overcast
12:15 PM 37.4 °F 28.5 °F 33.8 °F 87% 30.00 in 7.0 mi WNW 15.0 mph 19.6 mph N/A   Overcast
12:35 PM 36.5 °F 27.8 °F 33.4 °F 89% 30.00 in 7.0 mi WNW 13.8 mph 17.3 mph N/A   Overcast
12:55 PM 36.7 °F 28.0 °F 33.4 °F 88% 30.00 in 7.0 mi NW 13.8 mph - N/A   Overcast
1:15 PM 36.5 °F 28.2 °F 33.1 °F 87% 30.00 in 7.0 mi NW 12.7 mph - N/A   Overcast
1:35 PM 36.3 °F 28.9 °F 33.1 °F 88% 30.00 in 7.0 mi WNW 10.4 mph - N/A   Overcast
1:55 PM 36.1 °F 28.2 °F 33.1 °F 89% 30.00 in 7.0 mi NW 11.5 mph 18.4 mph N/A   Overcast
2:15 PM 36.5 °F 29.7 °F 33.3 °F 88% 30.01 in 7.0 mi WNW 9.2 mph - N/A   Overcast
2:35 PM 36.3 °F 28.4 °F 32.9 °F 87% 30.01 in 7.0 mi WNW 11.5 mph - N/A   Overcast
2:55 PM 36.5 °F 29.2 °F 33.1 °F 87% 30.02 in 7.0 mi WNW 10.4 mph 17.3 mph N/A   Overcast
3:15 PM 36.5 °F 28.2 °F 32.9 °F 87% 30.02 in 7.0 mi WNW 12.7 mph - N/A   Overcast
3:35 PM 36.5 °F 28.2 °F 32.5 °F 86% 30.03 in 7.0 mi WNW 12.7 mph - N/A   Overcast
3:55 PM 36.3 °F 28.4 °F 32.4 °F 86% 30.03 in 7.0 mi WNW 11.5 mph - N/A   Overcast
4:15 PM 36.0 °F 29.6 °F 32.0 °F 86% 30.04 in 7.0 mi West 8.1 mph - N/A   Overcast
4:35 PM 35.8 °F 28.3 °F 32.0 °F 86% 30.04 in 7.0 mi WNW 10.4 mph - N/A   Overcast
4:55 PM 35.8 °F 28.8 °F 32.0 °F 86% 30.05 in 7.0 mi WNW 9.2 mph - N/A   Overcast
5:15 PM 35.6 °F 29.2 °F 32.2 °F 87% 30.05 in 7.0 mi WNW 8.1 mph - N/A   Overcast
5:35 PM 35.8 °F 30.1 °F 32.2 °F 87% 30.05 in 7.0 mi WNW 6.9 mph - N/A   Overcast
5:55 PM 35.6 °F 27.5 °F 32.0 °F 87% 30.06 in 7.0 mi WNW 11.5 mph 16.1 mph N/A   Overcast
6:15 PM 35.6 °F 29.9 °F 32.0 °F 87% 30.06 in 7.0 mi WNW 6.9 mph - N/A   Overcast
6:35 PM 35.6 °F 28.6 °F 32.0 °F 87% 30.06 in 7.0 mi WNW 9.2 mph - N/A   Overcast
6:55 PM 35.1 °F 28.6 °F 32.0 °F 89% 30.06 in 5.0 mi WNW 8.1 mph - N/A Snow Light Snow
7:15 PM 35.1 °F 27.9 °F 32.0 °F 89% 30.07 in 7.0 mi WNW 9.2 mph - N/A   Overcast
7:35 PM 35.1 °F 27.9 °F 32.0 °F 89% 30.07 in 7.0 mi WNW 9.2 mph - N/A   Overcast
7:55 PM 34.9 °F 29.0 °F 32.2 °F 90% 30.07 in 5.0 mi NW 6.9 mph - N/A Snow Light Snow
8:15 PM 34.7 °F 28.1 °F 32.4 °F 91% 30.06 in 4.0 mi WNW 8.1 mph - N/A Snow Light Snow
8:35 PM 34.7 °F 28.8 °F 32.4 °F 91% 30.07 in 5.0 mi WNW 6.9 mph - N/A Snow Light Snow
8:55 PM 34.7 °F 29.6 °F 32.9 °F 93% 30.07 in 4.0 mi WNW 5.8 mph - N/A Snow Light Snow
9:15 PM 34.3 °F 27.7 °F 33.1 °F 95% 30.07 in 3.0 mi NW 8.1 mph - N/A Snow Light Snow
9:35 PM 34.2 °F 29.0 °F 33.3 °F 97% 30.08 in 3.0 mi WNW 5.8 mph - N/A Snow Light Snow
9:55 PM 34.0 °F 28.0 °F 33.4 °F 98% 30.08 in 4.0 mi WNW 6.9 mph - N/A Snow Light Snow
10:15 PM 34.0 °F 29.8 °F 33.4 °F 98% 30.08 in 3.0 mi WNW 4.6 mph - N/A Snow Light Snow
10:35 PM 33.8 °F 27.7 °F 33.3 °F 98% 30.07 in 3.0 mi WNW 6.9 mph - N/A Snow Light Snow
10:55 PM 33.8 °F 27.0 °F 33.3 °F 98% 30.07 in 2.5 mi WNW 8.1 mph - N/A Snow Light Snow
11:15 PM 33.8 °F 28.6 °F 33.4 °F 99% 30.07 in 2.0 mi WNW 5.8 mph - N/A Snow Light Snow
11:35 PM 33.8 °F 28.6 °F 33.8 °F 100% 30.06 in 2.0 mi WNW 5.8 mph - N/A Snow Light Snow
11:55 PM 33.4 °F 28.1 °F 33.4 °F 100% 30.06 in 2.5 mi WNW 5.8 mph - N/A Snow Light Snow